Flag for U.S.A. Weather past 2 weeks in Houston, Texas, U.S.A.

Now
90 °F

Scattered clouds.


Feels Like: 95 °F
Forecast: 73 / 90 °F
Wind: 6 mph from Northwest

Location: Houston Hobby Airport

Current Time: Sep 22, 2014 at 1:27:51 PM

Latest Report: Sep 22, 2014 at 12:53 PM


Visibility: 10 mi

Pressure: 30.06 "Hg

Humidity: 50%

Dew point: 69 °F

Location of HoustonLocation

Historic Weather in Houston — Graph

°F

Houston temperature yesterday

Maximum temperature yesterday: 91 °F (at 3:53 PM)
Minimum temperature yesterday: 75 °F (at 6:53 AM)
Average temperature yesterday: 82 °F

Past Weeks' High & Low Weather Summary

 TemperatureHumidityPressure
High94 °F (Sep 10, 12:53 PM)100% (Sep 18, 11:56 AM)30.19 "Hg (Sep 18, 11:56 AM)
Low67 °F (Sep 14, 2:53 AM)41% (Sep 11, 2:53 PM)29.84 "Hg (Sep 10, 4:53 PM)
Average79 °F83%29.99 "Hg
* Reported Sep 7 11:53 AM — Sep 22 11:53 AM, Houston, Weather by CustomWeather, © 2014

Note: Actual official high and low records may vary slightly from our data, if they occured in-between our weather recording intervals... More about our weather records

Advertising

Houston weather history for previous 24 hours

 ConditionsComfort  
Time TempWeatherWind HumidityBarometerVisibility
11:53 AM
Sep 22
88 °FScattered clouds.9 mph57%30.08 "Hg10 mi
10:53 AM87 °FScattered clouds.3 mph59%30.08 "Hg10 mi
9:53 AM85 °FScattered clouds.5 mph65%30.09 "Hg10 mi
8:53 AM81 °FPassing clouds.No wind74%30.08 "Hg10 mi
7:53 AM77 °FPassing clouds.5 mph85%30.07 "Hg10 mi
6:53 AM75 °FPassing clouds.No wind88%30.06 "Hg10 mi
5:53 AM74 °FClear.No wind91%30.05 "Hg10 mi
4:53 AM74 °FPassing clouds.No wind91%30.04 "Hg10 mi
3:53 AM73 °FPassing clouds.No wind94%30.04 "Hg10 mi
2:53 AM75 °FPassing clouds.No wind90%30.04 "Hg10 mi
1:53 AM75 °FPassing clouds.3 mph90%30.04 "Hg10 mi
12:53 AM75 °FPassing clouds.No wind90%30.03 "Hg10 mi
11:53 PM
Sep 21
77 °FPassing clouds.No wind85%30.03 "Hg10 mi
10:53 PM78 °FPassing clouds.No wind82%30.04 "Hg10 mi
9:53 PM80 °FClear.No wind76%30.03 "Hg10 mi
8:53 PM79 °FPassing clouds.3 mph79%30.02 "Hg10 mi
7:53 PM81 °FScattered clouds.No wind69%30.00 "Hg10 mi
6:53 PM86 °FScattered clouds.8 mph55%29.98 "Hg10 mi
5:53 PM88 °FScattered clouds.10 mph52%29.98 "Hg10 mi
4:53 PM89 °FScattered clouds.9 mph50%29.98 "Hg10 mi
3:53 PM91 °FScattered clouds.9 mph49%29.98 "Hg10 mi
2:53 PM89 °FPassing clouds.7 mph52%30.00 "Hg10 mi
1:53 PM90 °FScattered clouds.10 mph50%30.03 "Hg10 mi
Weather by CustomWeather, © 2014

See weather overviewHow to use our weather pages